Location: Unspecified
(42.3650°N, 71.1030°W)
Time: 03:51:10
(UTC+00:00)

Explorer 11/Cluster Stage 4 - Pass Details

Date: 27 June 2024
Orbit: 465 x 1216 km, 28.8° (Epoch: 13 July)

Event Time Altitude Azimuth Distance (km) Brightness Sun altitude
Rises 00:08:34 0° 239° (WSW) 3,934 10.6 1.8°
Reaches altitude 10° 00:11:41 10° 228° (SW) 3,053 9.9 1.3°
Maximum altitude 00:18:04 28° 173° (S) 2,072 8.4 0.3°
Drops below altitude 10° 00:24:37 10° 118° (ESE) 3,144 9.0 -0.7°
Sets 00:27:53 0° 108° (ESE) 4,070 9.6 -1.2°
Enters shadow 00:27:54 - 108° (ESE) 4,075 9.6 -1.2°
